KGRR-WX Weather Reports


time (UTC)temp
C
wind
direction
speed
KPH
gust
KPH
rain 1hr
cm
rain 24hr
cm
rain mn
cm
humidity
%
barometer
mb
20260503033022 2 207 4.8 0.0 0.00 0.00 0.00 68 987.4
20260503031505 3 208 6.4 0.0 0.00 0.00 0.00 68 987.5
20260503030024 3 217 6.4 0.0 0.00 0.00 0.00 68 987.5
20260503024505 3 221 6.4 0.0 0.00 0.00 0.00 59 988.4
20260503023021 3 231 6.4 0.0 0.00 0.00 0.00 63 987.8
20260503021505 3 235 9.7 0.0 0.00 0.00 0.00 63 987.8
20260503020024 4 237 9.7 0.0 0.00 0.00 0.00 63 987.8
20260503014505 5 240 11.3 0.0 0.00 0.00 0.00 55 987.4
20260503013020 5 242 11.3 0.0 0.00 0.00 0.00 55 987.4
20260503011506 5 240 9.7 0.0 0.00 0.00 0.00 55 987.4
20260503010022 5 242 9.7 0.0 0.00 0.00 0.00 55 987.4
20260503004505 6 242 9.7 0.0 0.00 0.00 0.00 39 988.4
20260503003013 6 239 9.7 0.0 0.00 0.00 0.00 39 988.4
20260503001506 7 251 8.0 0.0 0.00 0.00 0.00 39 988.4
20260503000017 7 264 9.7 0.0 0.00 0.00 0.00 39 988.4
20260502234505 8 270 12.9 0.0 0.00 0.00 0.00 34 988.2
20260502233011 8 273 14.5 0.0 0.00 0.00 0.00 34 988.2
20260502231505 8 273 16.1 0.0 0.00 0.00 0.00 34 988.2
20260502230024 8 274 16.1 0.0 0.00 0.00 0.00 34 988.2
20260502224505 8 273 17.7 0.0 0.00 0.00 0.00 35 988.6
20260502223021 8 272 19.3 0.0 0.00 0.00 0.00 33 989.3
20260502221505 8 271 19.3 0.0 0.00 0.00 0.00 33 989.3
20260502220018 9 270 19.3 0.0 0.00 0.00 0.00 33 989.3
20260502214505 9 271 19.3 0.0 0.00 0.00 0.00 34 989.3
20260502213021 9 270 17.7 0.0 0.00 0.00 0.00 37 989.2
20260502211505 9 264 17.7 0.0 0.00 0.00 0.00 37 989.1
20260502210023 9 262 17.7 0.0 0.00 0.00 0.00 37 989.1
20260502204505 9 260 17.7 0.0 0.00 0.00 0.00 33 989.5
20260502203021 9 265 17.7 0.0 0.00 0.00 0.00 33 990.0
20260502201505 9 269 17.7 0.0 0.00 0.00 0.00 33 990.0
20260502200023 9 269 19.3 0.0 0.00 0.00 0.00 33 990.0
20260502194505 8 270 17.7 0.0 0.00 0.00 0.00 32 990.2
20260502193013 8 272 19.3 0.0 0.00 0.00 0.00 32 990.2
20260502191505 9 275 19.3 0.0 0.00 0.00 0.00 32 990.2
20260502190023 8 274 19.3 0.0 0.00 0.00 0.00 32 990.2
20260502184505 8 273 19.3 0.0 0.00 0.00 0.00 43 990.3
20260502183021 8 283 17.7 0.0 0.00 0.00 0.00 43 990.2
20260502181504 8 274 17.7 0.0 0.00 0.00 0.00 43 990.2
20260502163021 7 279 12.9 0.0 0.00 0.00 0.00 40 989.6
20260502161505 7 279 12.9 0.0 0.00 0.00 0.00 40 989.6
20260502151506 6 287 11.3 0.0 0.00 0.00 0.00 50 989.8
20260502123020 1 325 6.4 0.0 0.00 0.00 0.00 81 990.5
20260502121505 1 330 6.4 0.0 0.00 0.00 0.00 81 990.5
20260502114505 0 315 4.8 0.0 0.00 0.00 0.00 84 990.3
20260502113022 0 292 3.2 0.0 0.00 0.00 0.00 87 990.1
20260502111505 0 288 3.2 0.0 0.00 0.00 0.00 87 990.1
20260502110024 0 284 3.2 0.0 0.00 0.00 0.00 87 990.1
20260502104505 0 270 3.2 0.0 0.00 0.00 0.00 86 989.9
20260502103020 0 270 3.2 0.0 0.00 0.00 0.00 89 990.1
20260502101505 0 270 3.2 0.0 0.00 0.00 0.00 89 990.1
20260502091505 0 275 3.2 0.0 0.00 0.00 0.00 89 989.6
20260502071505 0 318 4.8 0.0 0.00 0.00 0.00 78 989.0
20260502070018 0 317 4.8 0.0 0.00 0.00 0.00 78 989.0
20260502064505 0 311 6.4 0.0 0.00 0.00 0.00 73 990.0
20260502063022 0 292 4.8 0.0 0.00 0.00 0.00 76 989.9
20260502061505 0 287 4.8 0.0 0.00 0.00 0.00 76 989.9
20260502060025 0 291 4.8 0.0 0.00 0.00 0.00 76 989.9
20260502054505 0 295 4.8 0.0 0.00 0.00 0.00 72 989.2
20260502053021 0 300 4.8 0.0 0.00 0.00 0.00 74 989.6
20260502051505 0 315 6.4 0.0 0.00 0.00 0.00 74 989.6
20260502050023 0 329 8.0 0.0 0.00 0.00 0.00 74 989.6
20260502044506 1 330 8.0 0.0 0.00 0.00 0.00 70 989.1
20260502043021 1 332 8.0 0.0 0.00 0.00 0.00 72 989.3
20260502041505 1 336 9.7 0.0 0.00 0.00 0.00 72 989.3
20260502040019 1 333 9.7 0.0 0.00 0.00 0.00 72 989.3
20260502034505 1 327 9.7 0.0 0.00 0.00 0.00 63 988.9